This is the latest recevied weather packets stored in our database for station/object KB4JHU-15. If no packets are shown the sender has not sent any weather packets the latest 10 day(s).
| Time | Temp. | Humidity | Pressure | Rain* | Wind** | Luminosity | Snow |
|---|---|---|---|---|---|---|---|
| 1788528429 | 28.33° C | 73% | - | 0 mm | - | - | - |
| 1788526628 | 25° C | 89% | - | 0 mm | - | - | - |
| 1788524827 | 23.33° C | 93% | - | 0 mm | - | - | - |
| 1788523026 | 23.33° C | 92% | - | 0 mm | - | - | - |
| 1788521225 | 23.33° C | 92% | - | 0 mm | - | - | - |
| 1788519424 | 23.33° C | 92% | - | 0 mm | - | - | - |
| 1788517623 | 23.89° C | 91% | - | 0 mm | - | - | - |
| 1788515822 | 23.89° C | 90% | - | 0 mm | - | - | - |
| 1788514021 | 23.89° C | 90% | - | 0 mm | - | - | - |
| 1788512220 | 23.89° C | 90% | - | 0 mm | - | - | - |
| 1788510419 | 24.44° C | 89% | - | 0 mm | - | - | - |
| 1788508618 | 24.44° C | 89% | - | 0 mm | - | - | - |
| 1788506817 | 23.89° C | 90% | - | 0 mm | - | - | - |
| 1788505016 | 25° C | 89% | - | 0 mm | - | - | - |
| 1788503215 | 25° C | 87% | - | 0 mm | - | - | - |
| 1788501414 | 25.56° C | 86% | - | 0 mm | - | - | - |
| 1788499613 | 25.56° C | 84% | - | 0 mm | - | - | - |
| 1788497812 | 26.11° C | 83% | - | 0 mm | - | - | - |
| 1788496011 | 26.11° C | 81% | - | 0 mm | - | - | - |
| 1788494210 | 26.67° C | 80% | - | 0 mm | - | - | - |
| 1788492409 | 27.22° C | 78% | - | 0 mm | - | - | - |
| 1788490608 | 27.22° C | 77% | - | 0 mm | - | - | - |
| 1788488807 | 27.78° C | 74% | - | 0 mm | - | - | - |
| 1788487006 | 28.33° C | 71% | - | 0 mm | - | - | - |
| 1788485205 | 29.44° C | 69% | - | 0 mm | - | - | - |
* Rain latest hour (hover to see other rain measurements)
** Current wind speed in m/s (hover to see current wind gust speed)